TimeCDT,TemperatureF,Dew PointF,Humidity,Sea Level PressureIn,VisibilityMPH,Wind Direction,Wind SpeedMPH,Gust SpeedMPH,PrecipitationIn,Events,Conditions,WindDirDegrees,DateUTC
12:56 AM,75.0,69.1,82,29.71,10.0,WNW,3.5,-,N/A,,Overcast,290,2013-06-30 05:56:00
1:56 AM,75.0,68.0,79,29.68,10.0,NNW,4.6,-,N/A,,Overcast,330,2013-06-30 06:56:00
2:56 AM,73.9,68.0,82,29.67,10.0,Calm,Calm,-,N/A,,Clear,0,2013-06-30 07:56:00
3:56 AM,72.0,68.0,87,29.67,10.0,SE,4.6,-,N/A,,Clear,140,2013-06-30 08:56:00
4:56 AM,71.1,68.0,90,29.67,10.0,SE,3.5,-,N/A,,Clear,130,2013-06-30 09:56:00
5:56 AM,70.0,66.9,90,29.70,10.0,Calm,Calm,-,N/A,,Clear,0,2013-06-30 10:56:00
6:56 AM,73.0,69.1,87,29.71,10.0,Calm,Calm,-,N/A,,Mostly Cloudy,0,2013-06-30 11:56:00
7:56 AM,75.9,70.0,82,29.71,10.0,Calm,Calm,-,N/A,,Mostly Cloudy,0,2013-06-30 12:56:00
8:56 AM,80.1,71.1,74,29.71,10.0,NW,3.5,-,N/A,,Partly Cloudy,320,2013-06-30 13:56:00
9:56 AM,82.0,69.1,65,29.71,10.0,Calm,Calm,-,N/A,,Overcast,0,2013-06-30 14:56:00
10:56 AM,81.0,71.1,72,29.71,10.0,West,3.5,-,N/A,,Mostly Cloudy,280,2013-06-30 15:56:00
11:56 AM,82.9,71.1,67,29.70,10.0,Variable,4.6,-,N/A,,Clear,0,2013-06-30 16:56:00
12:56 PM,86.0,71.1,61,29.68,10.0,Calm,Calm,-,N/A,,Mostly Cloudy,0,2013-06-30 17:56:00
1:56 PM,88.0,70.0,55,29.67,10.0,North,4.6,-,N/A,,Mostly Cloudy,10,2013-06-30 18:56:00
2:33 PM,87.8,68.0,52,29.71,10.0,Variable,3.5,-,N/A,,Overcast,0,2013-06-30 19:33:00
2:56 PM,87.1,68.0,53,29.67,10.0,ESE,4.6,-,N/A,,Mostly Cloudy,110,2013-06-30 19:56:00
3:56 PM,87.1,68.0,53,29.68,10.0,Calm,Calm,-,N/A,,Overcast,0,2013-06-30 20:56:00
4:56 PM,84.0,71.1,65,29.67,10.0,South,6.9,-,N/A,,Overcast,170,2013-06-30 21:56:00
5:19 PM,82.4,73.4,74,29.71,10.0,Variable,3.5,-,N/A,Thunderstorm,Thunderstorm,0,2013-06-30 22:19:00
5:56 PM,80.1,73.0,79,29.68,10.0,South,8.1,-,N/A,Thunderstorm,Thunderstorm,170,2013-06-30 22:56:00
6:20 PM,78.8,69.8,74,29.73,10.0,SE,8.1,-,N/A,,Partly Cloudy,140,2013-06-30 23:20:00
6:29 PM,78.8,71.6,78,29.74,10.0,SSE,9.2,-,N/A,Thunderstorm,Thunderstorm,160,2013-06-30 23:29:00
6:45 PM,78.8,71.6,78,29.74,10.0,South,5.8,-,N/A,,Clear,170,2013-06-30 23:45:00
6:56 PM,77.0,70.0,79,29.70,10.0,SSE,9.2,-,N/A,,Clear,160,2013-06-30 23:56:00
7:56 PM,73.9,69.1,85,29.71,10.0,SE,3.5,-,N/A,,Clear,140,2013-07-01 00:56:00
8:56 PM,73.9,69.1,85,29.71,10.0,ESE,3.5,-,N/A,,Clear,110,2013-07-01 01:56:00
9:56 PM,73.0,68.0,84,29.74,10.0,Calm,Calm,-,N/A,,Clear,0,2013-07-01 02:56:00
10:56 PM,71.1,68.0,90,29.75,10.0,Calm,Calm,-,N/A,,Clear,0,2013-07-01 03:56:00
11:56 PM,72.0,66.9,84,29.74,10.0,Calm,Calm,-,N/A,,Clear,0,2013-07-01 04:56:00